Regional Weather Roundup
Issued by NWS Sioux Falls, SD

Home | Current Version | Previous Version | Text Only | Print | Product List | Glossary On
Versions: 1 2 3 4 5 6 7 8 9 10 11 12 13 14 15 16 17 18 19 20 21 22 23 24 25 26 27 28 29 30 31 32 33 34 35 36 37 38 39 40 41 42 43 44 45 46 47 48 49 50
000
ASUS43 KFSD 290110
RWRFSD

WEATHER ROUNDUP FOR SE SOUTH DAKOTA/SW MINNESOTA/NW IOWA
NATIONAL WEATHER SERVICE SIOUX FALLS SD
800 PM CDT TUE JUL 28 2015

NOTE: "FAIR" INDICATES FEW OR NO CLOUDS BELOW 12,000 FEET WITH NO
SIGNIFICANT WEATHER AND OR OBSTRUCTIONS TO VISIBILITY.


SDZ038>040-050-052>070-290200-
SOUTHEAST SOUTH DAKOTA

CITY           SKY/WX    TMP DP  RH WIND       PRES   REMARKS
BROOKINGS      CLEAR     73  55  53 W8        29.95R
CHAMBERLAIN    SUNNY     77  48  35 NW10G21   29.98R
HURON          CLEAR     76  54  46 W12       29.93R
MADISON        FAIR      75  55  50 W9        29.95S
MITCHELL       CLEAR     79  51  37 W12       29.95
SIOUX FALLS    PTCLDY    76  57  51 W5        29.94S
WINNER         FAIR      80  48  32 NW9       30.01R
YANKTON        CLEAR     75  59  57 W6        29.95R
$$

MNZ071-072-080-081-089-090-097-098-290200-
SOUTHWEST MINNESOTA

CITY           SKY/WX    TMP DP  RH WIND       PRES   REMARKS
FAIRMONT       PTCLDY    79  59  50 W7        29.90F
JACKSON        CLEAR     73  61  64 W9        29.94R
LUVERNE        CLEAR     77  63  61 W3        29.96R
MARSHALL       CLEAR     75  57  53 W7        29.92R
MONTEVIDEO     CLEAR     75  61  60 W5        29.90R
PIPESTONE      CLEAR     73  57  56 W6        29.95R
REDWOOD FALLS  CLEAR     77  60  55 W9        29.89R
TRACY          CLEAR     75  63  64 W5        29.93R
WINDOM         CLEAR     73  61  64 W8        29.94R
WORTHINGTON    CLEAR     73  61  64 W6        29.95R
$$

IAZ001>003-012>014-020>022-031-032-NEZ013-014-SDZ071-290200-
NORTHWEST IOWA

CITY           SKY/WX    TMP DP  RH WIND       PRES   REMARKS
CHEROKEE       CLOUDY    74  66  74 NW3       29.94R
DENISON        CLOUDY    75  70  83 N7        29.90R
ESTHERVILLE    CLEAR     75  63  66 NW8       29.92R
LE MARS        PTCLDY    75  66  73 NW6       29.95R
ORANGE CITY    CLEAR     72  63  73 NW6       29.95R
SHELDON        CLEAR     73  63  68 W6        29.93S
SIOUX CITY     PTCLDY    77  62  59 NW9       29.93S
SPENCER        CLEAR     76  60  57 NW9       29.93R
STORM LAKE     CLOUDY    75  64  69 NW8       29.95R
$$

ABBREVIATIONS USED IN REMARKS
   TC - TEMPERATURE IN CELSIUS
  WCI - WIND CHILL INDEX
   HX - HEAT INDEX
  VSB - VISIBILITY



USA.gov is the U.S. government's official web portal to all federal, state and local government web resources and services.